Flag for U.S.A. Weather past 2 weeks in Grand Rapids, Michigan, U.S.A.

Now
64 °F

Light rain. Fog.


Feels Like: 64 °F
Forecast: 62 / 69 °F
Wind: 8 mph from Southeast

Location: Kent County International Airport

Current Time: Aug 29, 2015 at 1:04:40 PM

Latest Report: Aug 29, 2015 at 11:53 AM


Visibility: 5 mi

Pressure: 30.09 "Hg

Humidity: 97%

Dew point: 63 °F

Location of Grand RapidsLocation

Historic Weather in Grand Rapids — Graph

°F

Grand Rapids temperature yesterday

Maximum temperature yesterday: 75 °F (at 2:53 PM)
Minimum temperature yesterday: 52 °F (at 3:53 AM)
Average temperature yesterday: 64 °F

Past Weeks' High & Low Weather Summary

 TemperatureHumidityPressure
High88 °F (Aug 16, 1:53 PM)100% (Aug 23, 3:03 PM)30.24 "Hg (Aug 23, 3:03 PM)
Low52 °F (Aug 27, 4:53 AM)44% (Aug 21, 11:53 AM)29.67 "Hg (Aug 19, 5:53 PM)
Average68 °F78%30.00 "Hg
* Reported Aug 14 11:53 AM — Aug 29 11:53 AM, Grand Rapids, Weather by CustomWeather, © 2015

Note: Actual official high and low records may vary slightly from our data, if they occured in-between our weather recording intervals... More about our weather records

Advertising

Grand Rapids weather history for previous 24 hours

 ConditionsComfort  
Time TempWeatherWind HumidityBarometerVisibility
11:53 AM
Sat, Aug 29
64 °FLight rain. Fog.8 mph97%30.09 "Hg5 mi
10:53 AM63 °FLight rain. Fog.6 mph100%30.11 "Hg2 mi
9:53 AM63 °FRain. Fog.3 mph97%30.11 "Hg1 mi
8:53 AM62 °FLight rain. Fog.5 mph96%30.11 "Hg4 mi
7:53 AM62 °FLight rain. Fog.7 mph93%30.11 "Hg6 mi
6:53 AM62 °FMostly cloudy.6 mph93%30.11 "Hg10 mi
5:53 AM61 °FOvercast.5 mph97%30.10 "Hg10 mi
4:53 AM62 °FClear.5 mph93%30.11 "Hg10 mi
3:53 AM63 °FPassing clouds.5 mph93%30.10 "Hg10 mi
2:53 AM63 °FPassing clouds.7 mph93%30.11 "Hg10 mi
1:53 AM65 °FLight rain. Mostly cloudy.7 mph97%30.13 "Hg7 mi
12:53 AM66 °FLight rain. Overcast.No wind96%30.14 "Hg7 mi
11:53 PM
Fri, Aug 28
66 °FLight rain. Overcast.3 mph93%30.13 "Hg7 mi
10:53 PM67 °FLight rain. Overcast.No wind90%30.12 "Hg10 mi
9:53 PM67 °FOvercast.No wind85%30.12 "Hg10 mi
8:53 PM69 °FOvercast.3 mph79%30.10 "Hg10 mi
7:53 PM71 °FOvercast.5 mph71%30.10 "Hg10 mi
6:53 PM73 °FOvercast.5 mph64%30.11 "Hg10 mi
5:53 PM74 °FMore clouds than sun.7 mph62%30.11 "Hg10 mi
4:53 PM75 °FPartly sunny.8 mph58%30.11 "Hg10 mi
3:53 PM75 °FPartly sunny.10 mph58%30.13 "Hg10 mi
2:53 PM75 °FPartly sunny.3 mph58%30.14 "Hg10 mi
1:53 PM74 °FPartly sunny.8 mph60%30.15 "Hg10 mi
Weather by CustomWeather, © 2015

See weather overviewHow to use our weather pages